Location: Caltech
(34.1382°N, 118.1253°W)
Time: 11:22:04
(UTC-07:00)

PCSat - Visible Passes

Search period start: 24 April 2018 00:00
Search period end: 04 May 2018 00:00
Orbit: 785 x 795 km, 67.1° (Epoch: 23 April)

Date Brightness Start Highest point End Pass type
(mag) Time Alt. Az. Time Alt. Az. Time Alt. Az.
24 Apr 10.3 21:07:39 10° N 21:12:38 36° ENE 21:13:48 32° E visible
24 Apr 11.4 22:51:24 10° NW 22:54:32 23° W 22:54:32 23° W visible
25 Apr 10.8 20:37:05 10° N 20:41:36 26° NE 20:44:03 19° E visible
25 Apr 10.7 22:20:04 10° NW 22:24:47 37° WSW 22:24:47 37° WSW visible
26 Apr 11.2 20:06:39 10° N 20:10:30 19° NE 20:14:19 10° E visible
26 Apr 10.0 21:48:55 10° NW 21:54:12 53° WSW 21:55:06 48° SW visible
27 Apr 9.6 21:17:53 10° NNW 21:23:20 77° WSW 21:25:28 38° SSE visible
28 Apr 9.5 20:46:59 10° NNW 20:52:26 75° ENE 20:55:54 23° SSE visible
28 Apr 12.1 22:33:36 10° W 22:35:04 11° WSW 22:36:33 10° WSW visible
29 Apr 9.8 20:16:10 10° NNW 20:21:29 53° ENE 20:26:24 12° SE visible
29 Apr 11.9 22:01:00 10° WNW 22:04:21 17° WSW 22:07:10 12° SW visible
30 Apr 11.5 21:29:18 10° NW 21:33:37 24° WSW 21:37:44 11° SSW visible
01 May 11.0 20:57:56 10° NW 21:02:49 35° WSW 21:07:41 10° S visible
02 May 10.4 20:26:46 10° NW 20:32:01 50° WSW 20:37:12 10° S visible
